Tracking 19562 objects as of 25-Mar-2019
HD Live streaming from Space Station
objects crossing your sky now

BONUM 1

Track BONUM 1 now!
BONUM 1 is classified as:


NORAD ID: 25546
Int'l Code: 1998-068A
Perigee: 36,110.7 km
Apogee: 36,176.8 km
Inclination: 5.5 °
Period: 1,454.0 minutes
Semi major axis: 42514 km
RCS: 0.003 m2 (small)
Launch date: November 22, 1998
Source: Commonwealth of Independent States (former USSR) (CIS)
Launch site: AIR FORCE EASTERN TEST RANGE (AFETR)

Television broadcasting; 8 Ku-band, Siberia or Europe, selected.
aabbcc
Your satellite tracking list
Your tracking list is empty




NASA's NSSDC Master Catalog

Two Line Element Set (TLE):
1 25546U 98068A   19084.01153421 -.00000073  00000-0  00000+0 0  9992
2 25546   5.4571  64.1810 0007782 289.8325 107.3015  0.99036089 74379
Source of the keplerian elements: AFSPC